Date String (YYYY-MM-DD hh:mm:ss) UTC,Instrument flags,absolute air pressure of the measurement (hPa),sample flow rate (lpm),inlet stack bypass flow (lpm),air temperature of the measurement (°C),ambient temperature measured by the external sensor (°C),aerosol sample conditioner tube jacket temperature (°C),OPC LED temperature (°C),internal box temperature (°C),relative humidity of the measurement (%),span deviation,mass concentration of particles derived from Lorenz-Mie calculation of OPC scattering (μg/m³),mass concentration of particles derived from Lorenz-Mie calculation of OPC scattering (μg/m³),mass concentration of particles derived from Lorenz-Mie calculation of OPC scattering (μg/m³)
DateTimeUTC,F1_M11,P_M11,Q1_M11,Q2_M11,T1_M11,T2_M11,T3_M11,T4_M11,T5_M11,U1_M11,ZSPAN_M11,X2_M11,X0_M11,X1_M11
2023-10-18 10:00:00,SystemResetWarning,0831.6,5.00,000.00,028.8,027.3,000.0,037.3,030.3,18.1,0000.0,0004.96,0028.80,0002.64
2023-10-18 10:01:00,SystemResetWarning,0831.6,4.99,000.00,028.7,027.3,000.0,037.3,030.3,18.1,0000.0,0005.06,0027.80,0002.65
2023-10-18 10:02:00,SystemResetWarning,0831.6,5.00,000.00,028.7,027.3,000.0,037.3,030.3,18.1,0000.0,0005.04,0027.29,0002.65
2023-10-18 10:03:00,SystemResetWarning,0831.6,4.99,000.00,028.7,027.3,000.0,037.3,030.3,18.1,0000.0,0005.08,0026.29,0002.66
2023-10-18 10:04:00,SystemResetWarning,0831.7,5.00,000.00,028.7,027.3,000.0,037.3,030.3,18.1,0000.0,0005.10,0026.62,0002.65
2023-10-18 10:05:00,SystemResetWarning,0831.7,5.01,000.00,028.7,027.3,000.0,037.3,030.3,18.1,0000.0,0005.03,0025.98,0002.64
2023-10-18 10:06:00,SystemResetWarning,0831.7,5.00,000.00,028.7,027.3,000.0,037.3,030.3,18.1,0000.0,0005.03,0024.60,0002.65
2023-10-18 10:07:00,SystemResetWarning,0832.1,5.00,000.00,028.7,027.3,000.0,037.3,030.3,18.2,0000.0,0004.98,0024.30,0002.66
2023-10-18 10:08:00,SystemResetWarning,0832.2,5.00,000.00,028.7,027.3,000.0,037.3,030.3,18.2,0000.0,0004.94,0024.52,0002.67
2023-10-18 10:09:00,SystemResetWarning,0831.9,5.00,000.00,028.7,027.3,000.0,037.3,030.3,18.3,0000.0,0004.86,0023.54,0002.66
2023-10-18 10:10:00,SystemResetWarning,0832.1,5.00,000.00,028.7,027.3,000.0,037.3,030.3,18.3,0000.0,0004.74,0021.92,0002.66
2023-10-18 10:11:00,SystemResetWarning,0831.7,5.00,000.00,028.7,027.3,000.0,037.3,030.3,18.3,0000.0,0004.72,0021.73,0002.67
2023-10-18 10:12:00,SystemResetWarning,0831.7,5.00,000.00,028.7,027.3,000.0,037.3,030.3,18.3,0000.0,0004.70,0023.69,0002.66
2023-10-18 10:13:00,SystemResetWarning,0831.7,5.00,000.00,028.7,027.2,000.0,037.3,030.2,18.4,0000.0,0004.73,0022.51,0002.64
2023-10-18 10:14:00,SystemResetWarning,0831.7,4.99,000.00,028.7,027.2,000.0,037.3,030.2,18.5,0000.0,0004.81,0023.79,0002.63
2023-10-18 10:15:00,SystemResetWarning,0831.7,5.01,000.00,028.7,027.2,000.0,037.2,030.2,18.5,0000.0,0004.88,0026.60,0002.64
2023-10-18 10:16:00,SystemResetWarning,0831.7,5.01,000.00,028.7,027.1,000.0,037.2,030.2,18.6,0000.0,0004.93,0031.21,0002.63
2023-10-18 10:17:00,SystemResetWarning,0831.7,5.01,000.00,028.6,027.0,000.0,037.2,030.2,18.6,0000.0,0004.92,0031.82,0002.60
2023-10-18 10:18:00,SystemResetWarning,0832.0,4.99,000.00,028.6,027.0,000.0,037.2,030.1,18.7,0000.0,0004.98,0031.51,0002.59
2023-10-18 10:19:00,SystemResetWarning,0832.1,4.99,000.00,028.6,027.0,000.0,037.2,030.1,18.8,0000.0,0004.96,0031.56,0002.58
2023-10-18 10:20:00,SystemResetWarning,0831.8,4.99,000.00,028.6,027.1,000.0,037.2,030.2,18.8,0000.0,0005.01,0033.10,0002.58
2023-10-18 10:21:00,SystemResetWarning,0831.9,5.00,000.00,028.6,027.1,000.0,037.2,030.2,18.9,0000.0,0005.06,0034.73,0002.59
2023-10-18 10:22:00,SystemResetWarning,0831.9,5.00,000.00,028.6,027.1,000.0,037.2,030.1,18.9,0000.0,0005.08,0034.46,0002.61
2023-10-18 10:23:00,SystemResetWarning,0831.9,5.00,000.00,028.6,027.1,000.0,037.2,030.1,18.9,0000.0,0004.99,0032.15,0002.63
2023-10-18 10:24:00,SystemResetWarning,0831.8,5.00,000.00,028.6,027.1,000.0,037.2,030.1,18.9,0000.0,0004.99,0032.32,0002.64
2023-10-18 10:25:00,SystemResetWarning,0832.1,5.00,000.00,028.6,027.1,000.0,037.2,030.1,18.9,0000.0,0004.98,0030.95,0002.63
2023-10-18 10:26:00,SystemResetWarning,0832.0,5.00,000.00,028.6,027.1,000.0,037.2,030.1,18.9,0000.0,0005.01,0028.88,0002.63
2023-10-18 10:27:00,SystemResetWarning,0831.9,5.00,000.00,028.6,027.0,000.0,037.1,030.1,18.8,0000.0,0005.06,0025.84,0002.64
2023-10-18 10:28:00,SystemResetWarning,0831.8,5.01,000.00,028.6,027.0,000.0,037.1,030.1,18.6,0000.0,0005.09,0025.90,0002.65
2023-10-18 10:29:00,SystemResetWarning,0831.8,5.00,000.00,028.6,027.0,000.0,037.1,030.1,18.4,0000.0,0005.10,0026.94,0002.67
2023-10-18 10:30:00,SystemResetWarning,0831.8,5.01,000.00,028.6,027.0,000.0,037.1,030.0,18.3,0000.0,0005.12,0027.89,0002.65
2023-10-18 10:31:00,SystemResetWarning,0831.8,5.00,000.00,028.5,027.0,000.0,037.1,030.1,18.2,0000.0,0005.12,0028.25,0002.64
2023-10-18 10:32:00,SystemResetWarning,0831.8,4.98,000.00,028.5,027.0,000.0,037.1,030.0,18.2,0000.0,0005.16,0028.09,0002.65
2023-10-18 10:33:00,SystemResetWarning,0831.9,5.01,000.00,028.5,027.0,000.0,037.1,030.0,18.2,0000.0,0005.18,0028.32,0002.64
2023-10-18 10:34:00,SystemResetWarning,0831.8,5.01,000.00,028.5,027.0,000.0,037.1,030.0,18.2,0000.0,0005.24,0029.53,0002.64
2023-10-18 10:35:00,SystemResetWarning,0831.9,4.99,000.00,028.5,026.9,000.0,037.1,030.0,18.2,0000.0,0005.27,0030.70,0002.65
2023-10-18 10:36:00,SystemResetWarning,0831.9,4.99,000.00,028.5,026.9,000.0,037.1,030.0,18.3,0000.0,0005.23,0031.35,0002.67
2023-10-18 10:37:00,SystemResetWarning,0831.9,5.00,000.00,028.5,026.9,000.0,037.1,029.9,18.3,0000.0,0005.18,0030.41,0002.67
2023-10-18 10:38:00,SystemResetWarning,0831.9,4.98,000.00,028.5,026.9,000.0,037.0,029.9,18.4,0000.0,0005.10,0028.37,0002.67
2023-10-18 10:39:00,SystemResetWarning,0831.9,5.00,000.00,028.4,026.9,000.0,037.0,029.9,18.4,0000.0,0005.06,0027.34,0002.66
2023-10-18 10:40:00,SystemResetWarning,0831.9,5.00,000.00,028.4,026.8,000.0,037.0,029.9,18.4,0000.0,0004.97,0025.65,0002.64
2023-10-18 10:41:00,SystemResetWarning,0831.9,5.01,000.00,028.4,026.8,000.0,037.0,029.9,18.4,0000.0,0004.97,0023.30,0002.66
2023-10-18 10:42:00,SystemResetWarning,0831.9,5.00,000.00,028.4,026.7,000.0,037.0,029.9,18.4,0000.0,0004.94,0022.00,0002.67
2023-10-18 10:43:00,SystemResetWarning,0831.9,4.99,000.00,028.4,026.7,000.0,037.0,029.8,18.4,0000.0,0004.95,0022.20,0002.66
2023-10-18 10:44:00,SystemResetWarning,0831.9,4.98,000.00,028.3,026.7,000.0,037.0,029.8,18.4,0000.0,0004.92,0022.70,0002.65
2023-10-18 10:45:00,SystemResetWarning,0831.9,5.00,000.00,028.3,026.7,000.0,036.9,029.8,18.4,0000.0,0004.91,0021.70,0002.64
2023-10-18 10:46:00,SystemResetWarning,0831.9,5.00,000.00,028.3,026.7,000.0,036.9,029.8,18.4,0000.0,0004.97,0020.43,0002.62
2023-10-18 10:47:00,SystemResetWarning,0831.9,5.01,000.00,028.3,026.6,000.0,036.9,029.8,18.4,0000.0,0004.96,0020.58,0002.61
2023-10-18 10:48:00,SystemResetWarning,0831.9,5.00,000.00,028.3,026.6,000.0,036.9,029.7,18.4,0000.0,0004.92,0021.78,0002.58
2023-10-18 10:49:00,SystemResetWarning,0831.9,4.99,000.00,028.3,026.6,000.0,036.9,029.7,18.4,0000.0,0004.94,0022.56,0002.57
2023-10-18 10:50:00,SystemResetWarning,0831.8,5.00,000.00,028.2,026.6,000.0,036.9,029.7,18.4,0000.0,0004.96,0023.38,0002.56
2023-10-18 10:51:00,SystemResetWarning,0831.8,5.00,000.00,028.2,026.6,000.0,036.9,029.7,18.4,0000.0,0004.99,0023.63,0002.55
2023-10-18 10:52:00,SystemResetWarning,0831.8,5.00,000.00,028.2,026.6,000.0,036.8,029.7,18.4,0000.0,0004.97,0025.82,0002.55
2023-10-18 10:53:00,SystemResetWarning,0831.7,4.99,000.00,028.2,026.6,000.0,036.8,029.7,18.4,0000.0,0004.97,0028.78,0002.53
2023-10-18 10:54:00,SystemResetWarning,0831.7,5.00,000.00,028.2,026.5,000.0,036.8,029.6,18.5,0000.0,0004.93,0027.81,0002.54
2023-10-18 10:55:00,SystemResetWarning,0831.7,5.00,000.00,028.2,026.5,000.0,036.8,029.6,18.5,0000.0,0004.86,0025.92,0002.53
2023-10-18 10:56:00,SystemResetWarning,0831.7,5.00,000.00,028.1,026.5,000.0,036.8,029.6,18.5,0000.0,0004.84,0026.11,0002.51
2023-10-18 10:57:00,SystemResetWarning,0831.7,5.00,000.00,028.1,026.4,000.0,036.8,029.6,18.5,0000.0,0004.73,0026.27,0002.51
2023-10-18 10:58:00,SystemResetWarning,0831.8,5.00,000.00,028.1,026.4,000.0,036.7,029.6,18.6,0000.0,0004.80,0026.10,0002.50
2023-10-18 10:59:00,SystemResetWarning,0831.8,5.00,000.00,028.1,026.4,000.0,036.7,029.5,18.6,0000.0,0004.87,0025.38,0002.50
